FW0153 Weather Reports


time (UTC)temp
C
wind
direction
speed
KPH
gust
KPH
rain 1hr
cm
rain 24hr
cm
rain mn
cm
humidity
%
barometer
mb
20260831152005 28 144 29.0 0.0 0.00 0.00 0.00 61 1013.3
20260831151505 29 120 14.5 0.0 0.00 0.00 0.00 61 1013.3
20260831151005 29 270 14.5 0.0 0.00 0.00 0.00 62 1013.3
20260831150711 29 136 6.4 0.0 0.00 0.00 0.00 63 1013.3
20260831150005 28 169 20.9 0.0 0.00 0.00 0.00 64 1013.3
20260831145505 28 107 20.9 0.0 0.00 0.00 0.00 67 1013.3
20260831145212 28 175 20.9 0.0 0.00 0.00 0.00 67 1013.3
20260831144505 28 157 20.9 0.0 0.00 0.00 0.00 68 1013.3
20260831144005 27 61 0.0 0.0 0.00 0.00 0.00 71 1013.3
20260831143713 27 143 43.5 0.0 0.00 0.00 0.00 71 1013.3
20260831143005 27 175 14.5 0.0 0.00 0.00 0.00 73 1013.3
20260831142505 27 139 14.5 0.0 0.00 0.00 0.00 73 1013.3
20260831142005 27 179 20.9 0.0 0.00 0.00 0.00 74 1013.3
20260831141504 27 107 20.9 0.0 0.00 0.00 0.00 73 1013.7
20260831141005 27 158 6.4 0.0 0.00 0.00 0.00 75 1013.3
20260831140713 27 91 29.0 0.0 0.00 0.00 0.00 76 1013.3
20260831140005 27 64 20.9 0.0 0.00 0.00 0.00 76 1013.0
20260831135505 26 89 20.9 0.0 0.00 0.00 0.00 77 1013.3
20260831135005 26 150 14.5 0.0 0.00 0.00 0.00 78 1013.0
20260831134505 26 173 14.5 0.0 0.00 0.00 0.00 79 1013.3
20260831134004 26 36 14.5 0.0 0.00 0.00 0.00 81 1013.0
20260831133713 26 117 0.0 0.0 0.00 0.00 0.00 82 1013.0
20260831133005 26 62 14.5 0.0 0.00 0.00 0.00 82 1013.0
20260831132505 26 114 0.0 0.0 0.00 0.00 0.00 83 1013.0
20260831132005 25 123 6.4 0.0 0.00 0.00 0.00 84 1013.0
20260831131505 25 86 6.4 0.0 0.00 0.00 0.00 84 1012.7
20260831131005 25 104 6.4 0.0 0.00 0.00 0.00 85 1013.0
20260831130505 25 88 6.4 0.0 0.00 0.00 0.00 85 1012.7
20260831130005 25 116 0.0 0.0 0.00 0.00 0.00 86 1012.7
20260831125505 25 133 6.4 0.0 0.00 0.00 0.00 86 1012.7
20260831125211 25 109 0.0 0.0 0.00 0.00 0.00 86 1012.7
20260831124505 25 107 6.4 0.0 0.00 0.00 0.00 87 1012.7
20260831124005 25 139 0.0 0.0 0.00 0.00 0.00 87 1012.7
20260831123505 25 139 0.0 0.0 0.00 0.00 0.00 87 1012.3
20260831123213 25 91 0.0 0.0 0.00 0.00 0.00 87 1012.3
20260831122712 25 115 0.0 0.0 0.00 0.00 0.00 87 1012.3
20260831122005 25 108 6.4 0.0 0.00 0.00 0.00 87 1012.3
20260831121712 25 104 0.0 0.0 0.00 0.00 0.00 87 1012.0
20260831121005 25 56 14.5 0.0 0.00 0.00 0.00 87 1012.3
20260831120505 25 136 0.0 0.0 0.00 0.00 0.00 87 1012.0
20260831120004 25 119 0.0 0.0 0.00 0.00 0.00 86 1012.0
20260831115505 25 102 0.0 0.0 0.00 0.00 0.00 86 1012.0
20260831115005 25 111 0.0 0.0 0.00 0.00 0.00 86 1011.6
20260831114712 25 135 0.0 0.0 0.00 0.00 0.00 86 1012.0
20260831114005 25 123 0.0 0.0 0.00 0.00 0.00 86 1011.6
20260831113505 25 137 6.4 0.0 0.00 0.00 0.00 86 1012.0
20260831113213 25 116 6.4 0.0 0.00 0.00 0.00 85 1011.6
20260831112505 25 111 0.0 0.0 0.00 0.00 0.00 85 1011.6
20260831112213 25 107 0.0 0.0 0.00 0.00 0.00 85 1012.0
20260831111504 25 60 0.0 0.0 0.00 0.00 0.00 84 1012.3
20260831111004 25 105 0.0 0.0 0.00 0.00 0.00 84 1012.0
20260831110712 25 106 14.5 0.0 0.00 0.00 0.00 84 1012.0
20260831110005 25 131 0.0 0.0 0.00 0.00 0.00 83 1012.0
20260831105505 25 119 0.0 0.0 0.00 0.00 0.00 83 1012.0
20260831105005 25 111 0.0 0.0 0.00 0.00 0.00 83 1011.6
20260831104505 25 84 0.0 0.0 0.00 0.00 0.00 83 1012.0
20260831104004 25 127 0.0 0.0 0.00 0.00 0.00 83 1012.0
20260831103505 25 95 0.0 0.0 0.00 0.00 0.00 82 1012.0
20260831103005 25 72 14.5 0.0 0.00 0.00 0.00 82 1011.6
20260831102505 25 142 14.5 0.0 0.00 0.00 0.00 82 1011.6
20260831102005 25 84 14.5 0.0 0.00 0.00 0.00 82 1011.6
20260831101505 25 118 6.4 0.0 0.00 0.00 0.00 82 1012.0
20260831101005 25 153 6.4 0.0 0.00 0.00 0.00 82 1012.0
20260831100505 26 139 6.4 0.0 0.00 0.00 0.00 82 1012.0
20260831100005 26 149 14.5 0.0 0.00 0.00 0.00 82 1012.0
20260831095504 26 149 14.5 0.0 0.00 0.00 0.00 82 1012.0
20260831095005 26 118 0.0 0.0 0.00 0.00 0.00 82 1012.0
20260831094505 26 121 6.4 0.0 0.00 0.00 0.00 82 1012.0
20260831094005 26 59 14.5 0.0 0.00 0.00 0.00 82 1012.0
20260831093505 26 120 6.4 0.0 0.00 0.00 0.00 82 1011.6
20260831093212 26 134 0.0 0.0 0.00 0.00 0.00 82 1011.6
20260831092505 26 170 14.5 0.0 0.00 0.00 0.00 82 1012.0
20260831092005 26 154 6.4 0.0 0.00 0.00 0.00 82 1011.6
20260831091713 26 147 6.4 0.0 0.00 0.00 0.00 81 1011.6
20260831091004 26 167 14.5 0.0 0.00 0.00 0.00 81 1011.6
20260831090505 26 121 20.9 0.0 0.00 0.00 0.00 81 1011.6
20260831090005 26 117 0.0 0.0 0.00 0.00 0.00 81 1012.3
20260831085713 26 96 0.0 0.0 0.00 0.00 0.00 81 1012.0
20260831085212 26 43 14.5 0.0 0.00 0.00 0.00 81 1012.0
20260831084505 26 126 6.4 0.0 0.00 0.00 0.00 80 1012.0
20260831084005 26 97 20.9 0.0 0.00 0.00 0.00 80 1012.3
20260831083713 26 154 14.5 0.0 0.00 0.00 0.00 80 1012.3
20260831083212 26 91 14.5 0.0 0.00 0.00 0.00 80 1012.3
20260831082505 26 50 37.0 0.0 0.00 0.00 0.00 79 1012.0
20260831082005 26 183 29.0 0.0 0.00 0.00 0.00 79 1012.3
20260831081504 26 167 37.0 0.0 0.00 0.00 0.00 80 1012.0
20260831081005 26 87 0.0 0.0 0.00 0.00 0.00 80 1012.0
20260831080713 26 168 43.5 0.0 0.00 0.00 0.00 80 1012.3
20260831080213 26 169 6.4 0.0 0.00 0.00 0.00 80 1012.3
20260831075712 26 117 0.0 0.0 0.00 0.00 0.00 81 1012.3
20260831075005 26 129 0.0 0.0 0.00 0.00 0.00 81 1012.3
20260831074504 26 85 0.0 0.0 0.00 0.00 0.00 81 1012.3
20260831074005 26 104 0.0 0.0 0.00 0.00 0.00 81 1012.3
20260831073505 26 144 6.4 0.0 0.00 0.00 0.00 81 1012.3
20260831073005 26 156 14.5 0.0 0.00 0.00 0.00 81 1012.3
20260831072505 26 170 14.5 0.0 0.00 0.00 0.00 81 1012.7
20260831072005 26 137 0.0 0.0 0.00 0.00 0.00 81 1012.3
20260831071505 26 175 6.4 0.0 0.00 0.00 0.00 81 1012.3
20260831071005 26 36 14.5 0.0 0.00 0.00 0.00 81 1012.7
20260831070505 26 83 6.4 0.0 0.00 0.00 0.00 81 1012.7
20260831070005 26 118 0.0 0.0 0.00 0.00 0.00 81 1012.7
20260831065505 26 117 6.4 0.0 0.00 0.00 0.00 81 1013.0
20260831065005 26 92 6.4 0.0 0.00 0.00 0.00 81 1013.0
20260831064505 26 152 6.4 0.0 0.00 0.00 0.00 81 1013.0
20260831064005 26 44 6.4 0.0 0.00 0.00 0.00 81 1013.0
20260831063505 26 129 14.5 0.0 0.00 0.00 0.00 81 1012.7
20260831063005 26 153 6.4 0.0 0.00 0.00 0.00 81 1013.0
20260831062712 26 58 14.5 0.0 0.00 0.00 0.00 80 1013.3
20260831062213 26 120 6.4 0.0 0.00 0.00 0.00 80 1013.0
20260831061504 26 105 6.4 0.0 0.00 0.00 0.00 80 1013.0
20260831061005 26 134 6.4 0.0 0.00 0.00 0.00 80 1013.0
20260831060712 26 29 0.0 0.0 0.00 0.00 0.00 80 1012.7
20260831060005 26 178 20.9 0.0 0.00 0.00 0.00 80 1013.0
20260831055712 26 66 0.0 0.0 0.00 0.00 0.00 80 1013.0
20260831055005 26 108 6.4 0.0 0.00 0.00 0.00 79 1013.0
20260831054505 26 82 6.4 0.0 0.00 0.00 0.00 79 1013.0
20260831054005 26 177 20.9 0.0 0.00 0.00 0.00 79 1012.7
20260831053505 26 88 0.0 0.0 0.00 0.00 0.00 79 1013.0
20260831053005 26 107 0.0 0.0 0.00 0.00 0.00 79 1013.0
20260831052711 26 63 20.9 0.0 0.00 0.00 0.00 79 1013.0
20260831052215 26 121 20.9 0.0 0.00 0.00 0.00 78 1013.0
20260831051712 26 111 6.4 0.0 0.00 0.00 0.00 78 1013.0
20260831051005 26 81 6.4 0.0 0.00 0.00 0.00 78 1013.3
20260831050505 26 69 0.0 0.0 0.00 0.00 0.00 78 1013.0
20260831045505 26 134 0.0 0.0 0.00 0.00 0.00 77 1013.0
20260831045004 26 38 29.0 0.0 0.00 0.00 0.00 77 1013.3
20260831044505 26 115 14.5 0.0 0.00 0.00 0.00 77 1013.3
20260831044005 26 77 14.5 0.0 0.00 0.00 0.00 77 1013.0
20260831043505 26 65 37.0 0.0 0.00 0.00 0.00 77 1013.3
20260831043005 26 162 20.9 0.0 0.00 0.00 0.00 77 1013.3
20260831042505 26 109 29.0 0.0 0.00 0.00 0.00 76 1013.3
20260831042212 26 64 29.0 0.0 0.00 0.00 0.00 76 1013.3
20260831041711 26 65 14.5 0.0 0.00 0.00 0.00 76 1013.0
20260831040505 26 36 20.9 0.0 0.00 0.00 0.00 75 1012.7
20260831040005 26 65 37.0 0.0 0.00 0.00 0.00 74 1012.7
20260831035505 26 60 6.4 0.0 0.00 0.00 0.00 73 1012.7
20260831035212 27 294 14.5 0.0 0.00 0.00 0.00 73 1012.3
20260831034505 27 63 14.5 0.0 0.00 0.00 0.00 72 1012.7
20260831034005 27 104 20.9 0.0 0.00 0.00 0.00 71 1012.7
20260831033505 27 147 6.4 0.0 0.00 0.00 0.00 71 1012.3
20260831033005 27 66 6.4 0.0 0.00 0.00 0.00 71 1012.3
20260831032505 27 127 14.5 0.0 0.00 0.00 0.00 71 1012.3
20260831032004 27 307 20.9 0.0 0.00 0.00 0.00 70 1012.3
20260831031505 27 110 14.5 0.0 0.00 0.00 0.00 69 1012.0
20260831031212 27 95 14.5 0.0 0.00 0.00 0.00 69 1012.0
20260831030505 27 79 29.0 0.0 0.00 0.00 0.00 69 1012.3
20260831030005 27 185 20.9 0.0 0.00 0.00 0.00 69 1012.0
20260831025505 27 73 20.9 0.0 0.00 0.00 0.00 68 1012.0
20260831025005 27 84 29.0 0.0 0.00 0.00 0.00 68 1011.6
20260831024505 27 28 6.4 0.0 0.00 0.00 0.00 67 1011.6
20260831023504 27 79 20.9 0.0 0.00 0.00 0.00 65 1011.6
20260831023005 27 62 6.4 0.0 0.00 0.00 0.00 65 1011.3
20260831022505 28 101 14.5 0.0 0.00 0.00 0.00 65 1011.3
20260831022005 28 32 37.0 0.0 0.00 0.00 0.00 64 1011.3
20260831021505 28 86 0.0 0.0 0.00 0.00 0.00 63 1011.3
20260831021005 28 108 20.9 0.0 0.00 0.00 0.00 63 1011.3
20260831020712 28 86 14.5 0.0 0.00 0.00 0.00 62 1011.0
20260831020005 28 80 14.5 0.0 0.00 0.00 0.00 62 1011.0
20260831015505 28 23 14.5 0.0 0.00 0.00 0.00 61 1011.0
20260831015211 28 105 20.9 0.0 0.00 0.00 0.00 60 1010.6
20260831014505 28 122 14.5 0.0 0.00 0.00 0.00 59 1010.6
20260831014005 28 104 37.0 0.0 0.00 0.00 0.00 59 1010.6
20260831013712 28 28 37.0 0.0 0.00 0.00 0.00 59 1011.0
20260831013005 28 79 6.4 0.0 0.00 0.00 0.00 58 1010.6
20260831012504 28 19 14.5 0.0 0.00 0.00 0.00 58 1010.6
20260831012213 28 105 14.5 0.0 0.00 0.00 0.00 58 1010.6
20260831011505 29 94 43.5 0.0 0.00 0.00 0.00 57 1010.6
20260831011005 29 24 37.0 0.0 0.00 0.00 0.00 58 1010.6
20260831010712 29 121 6.4 0.0 0.00 0.00 0.00 57 1010.6
20260831010005 29 68 6.4 0.0 0.00 0.00 0.00 57 1010.6
20260831005712 30 67 43.5 0.0 0.00 0.00 0.00 56 1010.3
20260831005005 30 91 37.0 0.0 0.00 0.00 0.00 55 1010.3
20260831004504 30 135 51.5 0.0 0.00 0.00 0.00 54 1010.3
20260831004005 30 36 14.5 0.0 0.00 0.00 0.00 53 1010.3
20260831003505 30 143 43.5 0.0 0.00 0.00 0.00 53 1009.9
20260831003005 30 64 14.5 0.0 0.00 0.00 0.00 53 1009.9
20260831002505 30 69 20.9 0.0 0.00 0.00 0.00 53 1009.6
20260831002005 30 50 14.5 0.0 0.00 0.00 0.00 52 1009.6
20260831001505 30 91 29.0 0.0 0.00 0.00 0.00 51 1009.6
20260831001005 30 41 14.5 0.0 0.00 0.00 0.00 51 1009.6
20260831000504 31 101 37.0 0.0 0.00 0.00 0.00 50 1009.6
20260831000005 31 113 14.5 0.0 0.00 0.00 0.00 50 1009.6
20260830235714 31 35 29.0 0.0 0.00 0.00 0.00 50 1009.6
20260830235005 31 191 6.4 0.0 0.00 0.00 0.00 49 1009.6
20260830234714 31 128 20.9 0.0 0.00 0.00 0.00 48 1009.6
20260830234005 31 135 20.9 0.0 0.00 0.00 0.00 46 1009.6
20260830233505 31 152 14.5 0.0 0.00 0.00 0.00 47 1009.6
20260830233005 31 25 20.9 0.0 0.00 0.00 0.00 45 1009.3
20260830232505 32 42 37.0 0.0 0.00 0.00 0.00 44 1009.6
20260830232005 32 106 20.9 0.0 0.00 0.00 0.00 43 1009.6
20260830231505 32 165 20.9 0.0 0.00 0.00 0.00 43 1009.3
20260830231005 32 96 20.9 0.0 0.00 0.00 0.00 43 1009.3
20260830230713 32 152 6.4 0.0 0.00 0.00 0.00 43 1009.3
20260830230005 32 144 29.0 0.0 0.00 0.00 0.00 41 1009.3
20260830225713 32 21 6.4 0.0 0.00 0.00 0.00 41 1009.3
20260830225005 32 32 20.9 0.0 0.00 0.00 0.00 40 1009.3
20260830224505 32 155 14.5 0.0 0.00 0.00 0.00 41 1009.3
20260830224005 32 78 20.9 0.0 0.00 0.00 0.00 44 1009.3
20260830223505 32 348 29.0 0.0 0.00 0.00 0.00 45 1009.3
20260830223005 32 49 6.4 0.0 0.00 0.00 0.00 46 1008.9
20260830222505 32 27 20.9 0.0 0.00 0.00 0.00 46 1008.9
20260830222005 32 323 20.9 0.0 0.00 0.00 0.00 46 1008.9
20260830221505 32 108 59.5 0.0 0.00 0.00 0.00 45 1009.3
20260830221005 33 38 6.4 0.0 0.00 0.00 0.00 45 1008.9
20260830220505 32 331 20.9 0.0 0.00 0.00 0.00 43 1008.9
20260830220005 32 46 37.0 0.0 0.00 0.00 0.00 44 1008.9
20260830215505 32 68 20.9 0.0 0.00 0.00 0.00 41 1008.9
20260830215005 32 165 29.0 0.0 0.00 0.00 0.00 41 1008.9
20260830214504 32 71 29.0 0.0 0.00 0.00 0.00 41 1008.9
20260830214005 33 73 20.9 0.0 0.00 0.00 0.00 39 1009.3
20260830213505 33 93 29.0 0.0 0.00 0.00 0.00 38 1009.3
20260830213005 33 166 6.4 0.0 0.00 0.00 0.00 39 1009.3
20260830212505 33 158 20.9 0.0 0.00 0.00 0.00 37 1009.3
20260830212005 33 53 14.5 0.0 0.00 0.00 0.00 38 1009.6
20260830211505 33 51 6.4 0.0 0.00 0.00 0.00 38 1009.6
20260830211005 33 41 14.5 0.0 0.00 0.00 0.00 38 1009.3
20260830210505 33 154 14.5 0.0 0.00 0.00 0.00 36 1009.6
20260830210006 33 73 20.9 0.0 0.00 0.00 0.00 37 1009.6
20260830205505 33 6 6.4 0.0 0.00 0.00 0.00 38 1009.6
20260830205005 34 57 14.5 0.0 0.00 0.00 0.00 35 1009.6
20260830204712 35 87 20.9 0.0 0.00 0.00 0.00 35 1009.9
20260830204213 34 17 6.4 0.0 0.00 0.00 0.00 39 1009.9
20260830203712 34 147 20.9 0.0 0.00 0.00 0.00 36 1010.3
20260830203005 34 192 14.5 0.0 0.00 0.00 0.00 37 1010.3
20260830202504 33 129 6.4 0.0 0.00 0.00 0.00 37 1010.3
20260830202005 34 144 0.0 0.0 0.00 0.00 0.00 37 1010.6
20260830201505 33 150 6.4 0.0 0.00 0.00 0.00 38 1010.6
20260830201005 34 135 0.0 0.0 0.00 0.00 0.00 37 1010.6
20260830200505 33 167 14.5 0.0 0.00 0.00 0.00 39 1010.6
20260830200213 33 161 6.4 0.0 0.00 0.00 0.00 39 1010.6
20260830195712 33 115 0.0 0.0 0.00 0.00 0.00 41 1011.0
20260830195005 33 81 6.4 0.0 0.00 0.00 0.00 38 1011.0
20260830194505 33 168 0.0 0.0 0.00 0.00 0.00 38 1011.0
20260830194005 33 169 14.5 0.0 0.00 0.00 0.00 39 1011.3
20260830193505 33 182 14.5 0.0 0.00 0.00 0.00 36 1011.3
20260830193005 33 89 6.4 0.0 0.00 0.00 0.00 39 1011.0
20260830192505 33 112 6.4 0.0 0.00 0.00 0.00 40 1011.3
20260830192005 34 141 6.4 0.0 0.00 0.00 0.00 37 1011.6
20260830191505 33 120 20.9 0.0 0.00 0.00 0.00 37 1011.6
20260830191005 33 96 37.0 0.0 0.00 0.00 0.00 39 1011.6
20260830190504 33 143 20.9 0.0 0.00 0.00 0.00 38 1011.6
20260830190005 33 132 29.0 0.0 0.00 0.00 0.00 36 1012.0
20260830185505 33 163 6.4 0.0 0.00 0.00 0.00 42 1011.6
20260830185005 33 73 20.9 0.0 0.00 0.00 0.00 40 1012.0
20260830184505 33 143 6.4 0.0 0.00 0.00 0.00 39 1012.0
20260830184005 33 164 20.9 0.0 0.00 0.00 0.00 38 1012.3
20260830183505 33 58 0.0 0.0 0.00 0.00 0.00 38 1012.3
20260830183212 32 48 14.5 0.0 0.00 0.00 0.00 43 1012.3
20260830182505 33 54 6.4 0.0 0.00 0.00 0.00 42 1012.3
20260830182005 33 57 20.9 0.0 0.00 0.00 0.00 40 1012.7
20260830181505 33 123 14.5 0.0 0.00 0.00 0.00 42 1012.7
20260830181005 33 139 29.0 0.0 0.00 0.00 0.00 42 1012.7
20260830180505 33 162 14.5 0.0 0.00 0.00 0.00 42 1012.7
20260830180005 33 127 6.4 0.0 0.00 0.00 0.00 44 1012.7
20260830175505 32 111 20.9 0.0 0.00 0.00 0.00 43 1013.0
20260830175005 32 188 20.9 0.0 0.00 0.00 0.00 44 1013.0
20260830174713 32 120 6.4 0.0 0.00 0.00 0.00 46 1013.0
20260830174212 32 68 6.4 0.0 0.00 0.00 0.00 44 1013.0
20260830173505 32 88 20.9 0.0 0.00 0.00 0.00 46 1013.0
20260830173004 32 161 29.0 0.0 0.00 0.00 0.00 44 1013.3
20260830172505 32 109 6.4 0.0 0.00 0.00 0.00 45 1013.3
20260830172005 32 95 29.0 0.0 0.00 0.00 0.00 47 1013.7
20260830171505 32 145 20.9 0.0 0.00 0.00 0.00 45 1013.3
20260830171005 31 102 59.5 0.0 0.00 0.00 0.00 46 1013.7
20260830170505 31 68 20.9 0.0 0.00 0.00 0.00 49 1013.7
20260830170005 31 127 6.4 0.0 0.00 0.00 0.00 48 1013.7
20260830165504 31 93 20.9 0.0 0.00 0.00 0.00 48 1014.0
20260830165005 32 41 14.5 0.0 0.00 0.00 0.00 48 1014.0
20260830164505 31 157 14.5 0.0 0.00 0.00 0.00 49 1014.0
20260830164212 31 59 43.5 0.0 0.00 0.00 0.00 51 1013.7
20260830163505 31 27 14.5 0.0 0.00 0.00 0.00 50 1014.0
20260830163005 31 77 29.0 0.0 0.00 0.00 0.00 51 1014.0
20260830162505 31 288 6.4 0.0 0.00 0.00 0.00 52 1014.0
20260830162005 31 88 29.0 0.0 0.00 0.00 0.00 52 1014.0
20260830161505 31 98 14.5 0.0 0.00 0.00 0.00 53 1014.0
20260830161005 31 112 6.4 0.0 0.00 0.00 0.00 53 1014.0
20260830160506 30 187 14.5 0.0 0.00 0.00 0.00 55 1014.0
20260830160005 30 148 29.0 0.0 0.00 0.00 0.00 55 1014.0
20260830155505 30 60 6.4 0.0 0.00 0.00 0.00 55 1014.0
20260830155005 30 59 14.5 0.0 0.00 0.00 0.00 58 1014.0
20260830154505 30 358 20.9 0.0 0.00 0.00 0.00 58 1014.0
20260830154005 30 151 20.9 0.0 0.00 0.00 0.00 58 1014.0
20260830153505 30 127 20.9 0.0 0.00 0.00 0.00 57 1014.0
20260830153211 30 43 14.5 0.0 0.00 0.00 0.00 59 1014.0
20260830152505 29 158 14.5 0.0 0.00 0.00 0.00 61 1014.0